Glendale Luke AFB, AZ

1:05 PM MST on November 18, 2019 (GMT -0700)
Luke Air Force Base

Weather History for KLUF - September, 2019

Change the Weather History Date:

Wednesday, September 4, 2019

  Actual Average Record
Temperature  
Mean Temperature 98 °F -  
Max Temperature 109 °F 104 °F 115 °F (1945)
Min Temperature 86 °F 72 °F 57 °F (1921)
Cooling Degree Days 32    
Growing Degree Days 48 (Base 50)    
Moisture  
Dew Point 56 °F    
Average Humidity 26    
Maximum Humidity 39    
Minimum Humidity 13    
Precipitation  
Precipitation 0.00 in - - ()
Sea Level Pressure  
Sea Level Pressure 29.73 in    
Wind  
Wind Speed 6 mph (South)    
Max Wind Speed 15 mph    
Max Gust Speed 20 mph    
Visibility 10 miles    
Events      
Averages and records for this station are not official NWS values.
T = Trace of Precipitation, MM = Missing Value Source: NWS Daily Summary

Daily Weather History Graph

Daily Weather History Graph

Search for Another Location

Airport or City:

Astronomy

Sep. 04, 2019 Rise Set
Actual Time 6:05 AM MST 6:51 PM MST
Civil Twilight 5:40 AM MST 7:16 PM MST
Nautical Twilight 5:10 AM MST 7:46 PM MST
Astronomical Twilight 4:39 AM MST 8:16 PM MST
Moon 11:53 AM MST (9/4) 10:46 PM MST (9/4)
Length of Visible Light 13h 36m
Length of Day
12h 45m
Waxing Crescent, 36% of the Moon is Illuminated
Sep 4
Waxing Crescent
Sep 5
First Quarter
Sep 13
Full
Sep 21
Last Quarter
Sep 28
New

Hourly Weather History & Observations

Time (MST) Temp. Heat Index Dew Point Humidity Pressure Visibility Wind Dir Wind Speed Gust Speed Precip Events Conditions
12:58 AM 91.8 °F 89.5 °F 54.0 °F 28% 29.70 in 10.0 mi North 9.2 mph - N/A   Clear
1:58 AM 91.2 °F 88.9 °F 53.4 °F 28% 29.72 in 10.0 mi Calm Calm - N/A   Clear
2:58 AM 88.7 °F 86.9 °F 55.0 °F 32% 29.71 in 10.0 mi Calm Calm - N/A   Clear
3:58 AM 86.5 °F 85.3 °F 56.3 °F 36% 29.72 in 10.0 mi North 4.6 mph - N/A   Scattered Clouds
4:58 AM 89.2 °F 87.7 °F 56.3 °F 33% 29.73 in 10.0 mi North 8.1 mph - N/A   Scattered Clouds
5:58 AM 86.7 °F 85.6 °F 57.2 °F 37% 29.75 in 10.0 mi North 3.5 mph - N/A   Overcast
6:58 AM 88.3 °F 88.1 °F 60.3 °F 39% 29.76 in 10.0 mi North 4.6 mph - N/A   Partly Cloudy
7:58 AM 91.6 °F 92.0 °F 62.2 °F 37% 29.79 in 10.0 mi East 3.5 mph - N/A   Clear
8:58 AM 94.8 °F 95.8 °F 62.8 °F 34% 29.81 in 10.0 mi SSE 3.5 mph - N/A   Clear
9:58 AM 97.2 °F 98.1 °F 62.2 °F 31% 29.81 in 10.0 mi East 3.5 mph - N/A   Clear
10:58 AM 100.8 °F 101.9 °F 61.5 °F 27% 29.81 in 10.0 mi SSE 5.8 mph - N/A   Clear
11:58 AM 102.7 °F 103.9 °F 61.2 °F 25% 29.78 in 10.0 mi ESE 10.4 mph - N/A   Clear
12:58 PM 106.5 °F 107.3 °F 59.5 °F 21% 29.76 in 10.0 mi SSE 10.4 mph - N/A   Clear
1:58 PM 106.9 °F 107.8 °F 58.6 °F 21% 29.73 in 10.0 mi West 5.8 mph - N/A   Clear
2:58 PM 109.6 °F 108.9 °F 54.9 °F 17% 29.69 in 10.0 mi South 6.9 mph - N/A   Clear
3:58 PM 109.8 °F - 49.8 °F 14% 29.67 in 10.0 mi WSW 4.6 mph - N/A   Clear
4:14 PM 109.4 °F - 50.0 °F 14% 29.67 in 9.0 mi South 13.8 mph 19.6 mph N/A   Clear
4:15 PM 109.4 °F - 50.0 °F 14% 29.67 in 9.0 mi WSW 12.7 mph 19.6 mph N/A   Clear
4:58 PM 109.0 °F - 47.3 °F 13% 29.66 in 10.0 mi Calm Calm - N/A   Clear
5:58 PM 108.7 °F - 46.9 °F 13% 29.66 in 10.0 mi SE 5.8 mph - N/A   Clear
6:58 PM 106.9 °F - 49.5 °F 15% 29.68 in 10.0 mi ESE 4.6 mph - N/A   Partly Cloudy
7:58 PM 105.8 °F - 50.4 °F 16% 29.71 in 10.0 mi South 4.6 mph - N/A   Mostly Cloudy
8:58 PM 100.9 °F 100.0 °F 56.3 °F 23% 29.74 in 10.0 mi SW 10.4 mph - N/A   Clear
9:58 PM 95.2 °F 94.3 °F 57.9 °F 29% 29.76 in 10.0 mi South 13.8 mph - N/A   Scattered Clouds
10:58 PM 94.3 °F 93.4 °F 58.1 °F 30% 29.78 in 10.0 mi SSW 13.8 mph - N/A   Clear
11:58 PM 92.7 °F 93.2 °F 61.7 °F 36% 29.79 in 10.0 mi SSW 15.0 mph - N/A   Partly Cloudy